GEESAT 3-08

导读

GEESAT 3-08是中国于2024年9月5日北京时间8点成功发射的商业卫星,隶属于吉利未来出行星座,由中国商业航天企业时空道宇研制。该卫星主要服务于低轨卫星互联网业务,面向全球提供商用通信服务,助力未来智能出行与车路协同基础设施建设,标志着GEESATCOM星座部署已接近过半,全球商用服务正式开启。

基本信息
目录编号:
61018
目录名称:
GEESAT 3-08
国际标识:
2024-159H
轨道中心:
EARTH
卫星名称:
GEESAT 3-08
卫星全名:
GEESAT 3-08
卫星状态:
在轨 (已飞行736 天)
发射日期:
2024-09-05 UTC
国别 :
中国 (CN)
星等 :
--
该卫星已列入 空间交会检测服务 Space Conjunction Data Service (SCDS) ,当前飞行风险评估等级: 无高风险
轨道信息
数据来源 国际轨道数据
星历时间: 2026-09-11T14:55:42+0800
7小时前
查看轨道信息
半长轴: 6993.375km
偏心率: 0.002726
轨道倾角: 50.006°
近地点辐角 64.860°
升交点赤经 43.687°
平近点角 295.516°
近地点: 596.174km
远地点: 634.302km
周期: 97.004分钟
每日圈数: 14.844741
详细信息
使用方式:
暂无
2D轨道图
3D轨道图
轨道高度分析图
轨道倾角分析图
轨道综合分析图
查看轨道综合分析图
与全量物体交会距离演化趋势
与全量物体交会风险概率演化趋势